Location: Poughquag
(41.6090°N, 73.6820°W)
Time: 08:36:36
(UTC-04:00)

ISS - Pass Details

Date: 26 May 2019
Orbit: 408 x 418 km, 51.6° (Epoch: 17 June)

Event Time Altitude Azimuth Distance (km) Brightness Sun altitude
Rises 21:09:31 0° 292° (WNW) 2,350 1.7 -8.8°
Reaches altitude 10° 21:12:16 10° 316° (NW) 1,491 0.7 -9.2°
Maximum altitude 21:14:20 15° 354° (N) 1,214 -0.8 -9.5°
Drops below altitude 10° 21:16:24 10° 33° (NNE) 1,496 -0.9 -9.8°
Sets 21:19:10 0° 57° (ENE) 2,363 -0.1 -10.2°
